Weather Roundup
Issued by NWS Springfield, MO

Home | Current Version | Previous Version | Text Only | Print | Product List | Glossary On
Versions: 1 2 3 4 5 6 7 8 9 10 11 12 13 14 15 16 17 18 19 20 21 22 23 24 25 26 27 28 29 30 31 32 33 34 35 36 37 38 39 40 41 42 43 44 45 46 47 48 49 50
000
NZUS99 KSGF 260957
HRRSGF

HOURLY WEATHER
NATIONAL WEATHER SERVICE SPRINGFIELD MO
500 AM CDT THU APR 26 2018

......SGF CWA......

CITY           SKY/WX    TMP DP  RH WIND       PRES   REMARKS
SPRINGFIELD    CLOUDY    49  47  93 N9        29.94R FOG
JOPLIN         CLOUDY    49  48  97 NW7       29.98S
WEST PLAINS    CLOUDY    51  48  89 N6        29.91S
ROLLA          CLOUDY    48  46  93 NW9       29.92F FOG
OSAGE BEACH    CLOUDY    47  47 100 VRB5      29.96R FOG

......SURROUNDING SGF CWA......

CITY           SKY/WX    TMP DP  RH WIND       PRES   REMARKS
CHANUTE        CLOUDY    48  46  93 N5        29.99F
PARSONS        CLOUDY    50  48  93 NE6       29.99F
COFFEYVILLE    CLOUDY    50  48  93 NE5       29.98F
EMPORIA        CLOUDY    39  38  96 W6        30.00R WCI  35
HARRISON AR    LGT RAIN  50  49  96 NE7       29.90F FOG

......KANSAS AND MISSOURI......

CITY           SKY/WX    TMP DP  RH WIND       PRES   REMARKS
KANSAS CTY INT CLEAR     42  39  89 W5        29.98S FOG
SEDALIA        FOG       46  46 100 NW5       29.97F VSB 1/4
ST JOSEPH      CLOUDY    34  34 100 SW3       29.99S FOG
ST LOUIS       CLOUDY    53  44  71 CALM      29.91S
WICHITA        PTCLDY    36  36 100 CALM      30.01F FOG
TOPEKA         PTCLDY    40  40 100 CALM      29.99F
OLATHE         CLEAR     40  40 100 NW6       29.98S

......TENNESSEE......

CITY           SKY/WX    TMP DP  RH WIND       PRES   REMARKS
MEMPHIS        NOT AVBL
NASHVILLE      CLOUDY    57  51  80 CALM      29.85F

......ARKANSAS.......

CITY           SKY/WX    TMP DP  RH WIND       PRES   REMARKS
FAYETTEVILLE   CLOUDY    50  49  96 N8        29.94R
FT SMITH       CLOUDY    52  50  93 W12       29.95S
LITTLE ROCK    DRIZZLE   53  53 100 NW8       29.90S

......OKLAHOMA.......

CITY           SKY/WX    TMP DP  RH WIND       PRES   REMARKS
TULSA          PTCLDY    47  44  90 CALM      29.98F
PONCA CITY     CLEAR     40  38  93 CALM      30.03R
MCALESTER      PTCLDY    42  42 100 CALM      30.00F
OKLAHOMA CITY  CLEAR     40  38  93 NW5       30.03S

......IOWA............

CITY           SKY/WX    TMP DP  RH WIND       PRES   REMARKS
DES MOINES     NOT AVBL
QUAD CITIES    FAIR      35  30  82 E6        29.95S WCI  30

......ILLINOIS........

CITY           SKY/WX    TMP DP  RH WIND       PRES   REMARKS
QUINCY         NOT AVBL
CHICAGO        FAIR      37  29  72 CALM      29.95S





USA.gov is the U.S. government's official web portal to all federal, state and local government web resources and services.